| time (UTC) | temp F | wind direction | speed MPH | gust MPH | rain 1hr in | rain 24hr in | rain mn in | humidity % | barometer mb |
| 20260904170715 | 98 | 0 | 0.0 | 7.0 | 0.00 | 0.00 | 0.00 | 24 | 1017.9 |
| 20260904170217 | 98 | 0 | 0.0 | 9.0 | 0.00 | 0.00 | 0.00 | 24 | 1017.9 |
| 20260904165207 | 98 | 8 | 0.0 | 11.0 | 0.00 | 0.00 | 0.00 | 24 | 1017.9 |
| 20260904164717 | 98 | 358 | 1.0 | 11.0 | 0.00 | 0.00 | 0.00 | 24 | 1018.0 |
| 20260904164241 | 98 | 324 | 2.0 | 11.0 | 0.00 | 0.00 | 0.00 | 23 | 1018.0 |
| 20260904163717 | 99 | 281 | 4.0 | 9.0 | 0.00 | 0.00 | 0.00 | 23 | 1017.9 |
| 20260904163214 | 99 | 9 | 2.0 | 9.0 | 0.00 | 0.00 | 0.00 | 23 | 1018.0 |
| 20260904162712 | 99 | 284 | 0.0 | 9.0 | 0.00 | 0.00 | 0.00 | 23 | 1018.0 |
| 20260904162207 | 99 | 326 | 3.0 | 9.0 | 0.00 | 0.00 | 0.00 | 23 | 1017.9 |
| 20260904161209 | 99 | 354 | 1.0 | 8.0 | 0.00 | 0.00 | 0.00 | 23 | 1018.0 |
| 20260904160715 | 99 | 327 | 2.0 | 11.0 | 0.00 | 0.00 | 0.00 | 23 | 1018.0 |
| 20260904155737 | 99 | 82 | 2.0 | 12.0 | 0.00 | 0.00 | 0.00 | 22 | 1018.0 |
| 20260904154719 | 98 | 327 | 3.0 | 16.0 | 0.00 | 0.00 | 0.00 | 23 | 1018.0 |
| 20260904154219 | 99 | 340 | 3.0 | 16.0 | 0.00 | 0.00 | 0.00 | 22 | 1018.0 |
| 20260904153706 | 99 | 289 | 3.0 | 16.0 | 0.00 | 0.00 | 0.00 | 22 | 1018.2 |
| 20260904153219 | 100 | 350 | 6.0 | 11.0 | 0.00 | 0.00 | 0.00 | 22 | 1018.0 |
| 20260904152711 | 100 | 307 | 3.0 | 10.0 | 0.00 | 0.00 | 0.00 | 22 | 1018.2 |
| 20260904152208 | 100 | 319 | 4.0 | 9.0 | 0.00 | 0.00 | 0.00 | 21 | 1018.3 |
| 20260904151706 | 100 | 240 | 0.0 | 17.0 | 0.00 | 0.00 | 0.00 | 21 | 1018.3 |
| 20260904151212 | 101 | 1 | 1.0 | 17.0 | 0.00 | 0.00 | 0.00 | 21 | 1018.3 |
| 20260904150734 | 100 | 264 | 2.0 | 17.0 | 0.00 | 0.00 | 0.00 | 21 | 1018.3 |
| 20260904150205 | 100 | 284 | 8.0 | 17.0 | 0.00 | 0.00 | 0.00 | 22 | 1018.4 |
| 20260904145711 | 100 | 272 | 2.0 | 17.0 | 0.00 | 0.00 | 0.00 | 21 | 1018.5 |
| 20260904145206 | 100 | 267 | 5.0 | 17.0 | 0.00 | 0.00 | 0.00 | 21 | 1018.6 |
| 20260904144708 | 100 | 292 | 3.0 | 16.0 | 0.00 | 0.00 | 0.00 | 21 | 1018.5 |
| 20260904144207 | 99 | 340 | 4.0 | 15.0 | 0.00 | 0.00 | 0.00 | 21 | 1018.6 |
| 20260904143715 | 99 | 333 | 6.0 | 17.0 | 0.00 | 0.00 | 0.00 | 21 | 1018.6 |
| 20260904143213 | 99 | 338 | 4.0 | 17.0 | 0.00 | 0.00 | 0.00 | 21 | 1018.6 |
| 20260904142712 | 99 | 284 | 4.0 | 17.0 | 0.00 | 0.00 | 0.00 | 21 | 1018.6 |
| 20260904142208 | 100 | 233 | 6.0 | 11.0 | 0.00 | 0.00 | 0.00 | 20 | 1018.6 |
| 20260904141713 | 100 | 35 | 2.0 | 19.0 | 0.00 | 0.00 | 0.00 | 21 | 1018.7 |
| 20260904141210 | 100 | 35 | 3.0 | 19.0 | 0.00 | 0.00 | 0.00 | 21 | 1018.6 |
| 20260904140716 | 100 | 336 | 2.0 | 19.0 | 0.00 | 0.00 | 0.00 | 21 | 1018.6 |
| 20260904140218 | 100 | 279 | 7.0 | 18.0 | 0.00 | 0.00 | 0.00 | 21 | 1018.8 |
| 20260904135707 | 100 | 260 | 4.0 | 20.0 | 0.00 | 0.00 | 0.00 | 21 | 1018.9 |
| 20260904135207 | 100 | 254 | 8.0 | 20.0 | 0.00 | 0.00 | 0.00 | 21 | 1018.9 |
| 20260904134718 | 100 | 250 | 6.0 | 21.0 | 0.00 | 0.00 | 0.00 | 20 | 1018.8 |
| 20260904133207 | 100 | 279 | 9.0 | 25.0 | 0.00 | 0.00 | 0.00 | 18 | 1018.9 |
| 20260904132715 | 100 | 293 | 9.0 | 25.0 | 0.00 | 0.00 | 0.00 | 18 | 1018.9 |
| 20260904131714 | 99 | 331 | 2.0 | 19.0 | 0.00 | 0.00 | 0.00 | 19 | 1018.9 |
| 20260904131215 | 99 | 271 | 3.0 | 19.0 | 0.00 | 0.00 | 0.00 | 22 | 1018.8 |
| 20260904130716 | 100 | 284 | 7.0 | 16.0 | 0.00 | 0.00 | 0.00 | 22 | 1018.9 |
| 20260904130207 | 99 | 295 | 6.0 | 16.0 | 0.00 | 0.00 | 0.00 | 22 | 1018.9 |
| 20260904125705 | 99 | 334 | 6.0 | 14.0 | 0.00 | 0.00 | 0.00 | 22 | 1018.9 |
| 20260904125212 | 99 | 244 | 6.0 | 15.0 | 0.00 | 0.00 | 0.00 | 22 | 1019.0 |
| 20260904124717 | 99 | 331 | 4.0 | 15.0 | 0.00 | 0.00 | 0.00 | 22 | 1018.8 |
| 20260904124211 | 99 | 262 | 5.0 | 15.0 | 0.00 | 0.00 | 0.00 | 23 | 1018.9 |
| 20260904123719 | 99 | 270 | 6.0 | 15.0 | 0.00 | 0.00 | 0.00 | 23 | 1018.9 |
| 20260904123211 | 99 | 1 | 3.0 | 15.0 | 0.00 | 0.00 | 0.00 | 24 | 1019.0 |
| 20260904122742 | 98 | 329 | 3.0 | 15.0 | 0.00 | 0.00 | 0.00 | 23 | 1018.9 |
| 20260904122210 | 98 | 333 | 5.0 | 11.0 | 0.00 | 0.00 | 0.00 | 24 | 1018.9 |
| 20260904121717 | 98 | 274 | 5.0 | 11.0 | 0.00 | 0.00 | 0.00 | 24 | 1018.9 |
| 20260904121218 | 98 | 289 | 4.0 | 11.0 | 0.00 | 0.00 | 0.00 | 25 | 1019.0 |
| 20260904120713 | 98 | 279 | 4.0 | 10.0 | 0.00 | 0.00 | 0.00 | 26 | 1019.0 |
| 20260904120214 | 97 | 288 | 3.0 | 9.0 | 0.00 | 0.00 | 0.00 | 26 | 1018.9 |
| 20260904115213 | 96 | 29 | 2.0 | 9.0 | 0.00 | 0.00 | 0.00 | 26 | 1018.9 |
| 20260904114212 | 96 | 329 | 0.0 | 9.0 | 0.00 | 0.00 | 0.00 | 27 | 1019.0 |
| 20260904113714 | 95 | 336 | 2.0 | 7.0 | 0.00 | 0.00 | 0.00 | 27 | 1019.1 |
| 20260904113206 | 95 | 323 | 2.0 | 5.0 | 0.00 | 0.00 | 0.00 | 27 | 1019.0 |
| 20260904112215 | 94 | 105 | 0.0 | 8.0 | 0.00 | 0.00 | 0.00 | 28 | 1019.0 |
| 20260904111706 | 94 | 52 | 1.0 | 8.0 | 0.00 | 0.00 | 0.00 | 28 | 1019.0 |
| 20260904111216 | 93 | 71 | 3.0 | 8.0 | 0.00 | 0.00 | 0.00 | 28 | 1019.1 |
| 20260904110712 | 93 | 22 | 4.0 | 10.0 | 0.00 | 0.00 | 0.00 | 29 | 1019.2 |
| 20260904110215 | 92 | 68 | 1.0 | 10.0 | 0.00 | 0.00 | 0.00 | 29 | 1019.2 |
| 20260904105705 | 92 | 33 | 1.0 | 10.0 | 0.00 | 0.00 | 0.00 | 30 | 1019.2 |
| 20260904105217 | 92 | 338 | 3.0 | 6.0 | 0.00 | 0.00 | 0.00 | 29 | 1019.4 |
| 20260904104717 | 92 | 0 | 0.0 | 6.0 | 0.00 | 0.00 | 0.00 | 29 | 1019.5 |
| 20260904104206 | 91 | 80 | 1.0 | 6.0 | 0.00 | 0.00 | 0.00 | 30 | 1019.4 |
| 20260904103706 | 91 | 30 | 2.0 | 6.0 | 0.00 | 0.00 | 0.00 | 29 | 1019.5 |
| 20260904103208 | 90 | 74 | 0.0 | 6.0 | 0.00 | 0.00 | 0.00 | 30 | 1019.6 |
| 20260904102708 | 90 | 21 | 1.0 | 6.0 | 0.00 | 0.00 | 0.00 | 30 | 1019.7 |
| 20260904102205 | 89 | 21 | 1.0 | 4.0 | 0.00 | 0.00 | 0.00 | 31 | 1019.8 |
| 20260904101715 | 89 | 4 | 0.0 | 9.0 | 0.00 | 0.00 | 0.00 | 31 | 1019.8 |
| 20260904101213 | 89 | 125 | 1.0 | 9.0 | 0.00 | 0.00 | 0.00 | 31 | 1019.9 |
| 20260904100716 | 89 | 104 | 1.0 | 9.0 | 0.00 | 0.00 | 0.00 | 31 | 1020.0 |
| 20260904100242 | 89 | 292 | 1.0 | 6.0 | 0.00 | 0.00 | 0.00 | 32 | 1020.0 |
| 20260904095714 | 89 | 184 | 0.0 | 6.0 | 0.00 | 0.00 | 0.00 | 31 | 1020.1 |
| 20260904095218 | 89 | 75 | 1.0 | 6.0 | 0.00 | 0.00 | 0.00 | 32 | 1020.1 |
| 20260904094710 | 88 | 91 | 1.0 | 6.0 | 0.00 | 0.00 | 0.00 | 33 | 1020.2 |
| 20260904094206 | 87 | 63 | 2.0 | 6.0 | 0.00 | 0.00 | 0.00 | 34 | 1020.2 |
| 20260904093709 | 87 | 9 | 2.0 | 3.0 | 0.00 | 0.00 | 0.00 | 35 | 1020.2 |
| 20260904093209 | 86 | 63 | 1.0 | 2.0 | 0.00 | 0.00 | 0.00 | 36 | 1020.3 |
| 20260904092707 | 86 | 338 | 0.0 | 1.0 | 0.00 | 0.00 | 0.00 | 36 | 1020.3 |
| 20260904092218 | 85 | 11 | 0.0 | 2.0 | 0.00 | 0.00 | 0.00 | 38 | 1020.4 |
| 20260904091711 | 85 | 0 | 0.0 | 2.0 | 0.00 | 0.00 | 0.00 | 38 | 1020.4 |
| 20260904091243 | 85 | 39 | 0.0 | 2.0 | 0.00 | 0.00 | 0.00 | 39 | 1020.4 |
| 20260904090715 | 84 | 160 | 0.0 | 1.0 | 0.00 | 0.00 | 0.00 | 38 | 1020.4 |
| 20260904085706 | 83 | 357 | 0.0 | 0.0 | 0.00 | 0.00 | 0.00 | 40 | 1020.4 |
| 20260904085206 | 82 | 0 | 0.0 | 0.0 | 0.00 | 0.00 | 0.00 | 40 | 1020.4 |
| 20260904084718 | 81 | 0 | 0.0 | 0.0 | 0.00 | 0.00 | 0.00 | 41 | 1020.4 |
| 20260904084217 | 81 | 0 | 0.0 | 0.0 | 0.00 | 0.00 | 0.00 | 42 | 1020.4 |
| 20260904083709 | 80 | 0 | 0.0 | 0.0 | 0.00 | 0.00 | 0.00 | 43 | 1020.4 |
| 20260904082718 | 78 | 0 | 0.0 | 0.0 | 0.00 | 0.00 | 0.00 | 45 | 1020.4 |
| 20260904082217 | 78 | 0 | 0.0 | 2.0 | 0.00 | 0.00 | 0.00 | 46 | 1020.3 |
| 20260904081709 | 77 | 0 | 0.0 | 2.0 | 0.00 | 0.00 | 0.00 | 47 | 1020.5 |
| 20260904081209 | 77 | 0 | 0.0 | 2.0 | 0.00 | 0.00 | 0.00 | 47 | 1020.5 |
| 20260904080709 | 76 | 158 | 0.0 | 2.0 | 0.00 | 0.00 | 0.00 | 49 | 1020.4 |
| 20260904080207 | 75 | 0 | 0.0 | 3.0 | 0.00 | 0.00 | 0.00 | 49 | 1020.5 |
| 20260904075206 | 74 | 195 | 0.0 | 3.0 | 0.00 | 0.00 | 0.00 | 52 | 1020.5 |
| 20260904074707 | 73 | 219 | 1.0 | 2.0 | 0.00 | 0.00 | 0.00 | 53 | 1020.6 |
| 20260904074219 | 72 | 274 | 0.0 | 2.0 | 0.00 | 0.00 | 0.00 | 54 | 1020.6 |
| 20260904072706 | 70 | 212 | 0.0 | 0.0 | 0.00 | 0.00 | 0.00 | 58 | 1020.6 |
| 20260904071705 | 69 | 0 | 0.0 | 0.0 | 0.00 | 0.00 | 0.00 | 60 | 1020.5 |
| 20260904071214 | 68 | 0 | 0.0 | 2.0 | 0.00 | 0.00 | 0.00 | 61 | 1020.6 |
| 20260904070219 | 67 | 0 | 0.0 | 2.0 | 0.00 | 0.00 | 0.00 | 63 | 1020.6 |
| 20260904065706 | 66 | 354 | 1.0 | 1.0 | 0.00 | 0.00 | 0.00 | 64 | 1020.6 |
| 20260904065219 | 66 | 0 | 0.0 | 1.0 | 0.00 | 0.00 | 0.00 | 65 | 1020.6 |
| 20260904064217 | 64 | 19 | 0.0 | 2.0 | 0.00 | 0.00 | 0.00 | 67 | 1020.6 |
| 20260904063706 | 64 | 0 | 0.0 | 2.0 | 0.00 | 0.00 | 0.00 | 67 | 1020.6 |
| 20260904063211 | 64 | 28 | 0.0 | 2.0 | 0.00 | 0.00 | 0.00 | 67 | 1020.6 |
| 20260904062217 | 63 | 19 | 0.0 | 0.0 | 0.00 | 0.00 | 0.00 | 68 | 1020.5 |
| 20260904061715 | 63 | 0 | 0.0 | 1.0 | 0.00 | 0.00 | 0.00 | 68 | 1020.6 |
| 20260904061218 | 63 | 0 | 0.0 | 1.0 | 0.00 | 0.00 | 0.00 | 68 | 1020.6 |
| 20260904060712 | 63 | 0 | 0.0 | 1.0 | 0.00 | 0.00 | 0.00 | 68 | 1020.5 |
| 20260904055705 | 64 | 67 | 0.0 | 3.0 | 0.00 | 0.00 | 0.00 | 67 | 1020.4 |
| 20260904055212 | 64 | 0 | 0.0 | 3.0 | 0.00 | 0.00 | 0.00 | 67 | 1020.2 |
| 20260904054711 | 63 | 254 | 1.0 | 3.0 | 0.00 | 0.00 | 0.00 | 67 | 1020.2 |
| 20260904054206 | 63 | 255 | 2.0 | 3.0 | 0.00 | 0.00 | 0.00 | 66 | 1020.1 |
| 20260904053707 | 64 | 246 | 2.0 | 5.0 | 0.00 | 0.00 | 0.00 | 66 | 1020.1 |
| 20260904053209 | 64 | 261 | 2.0 | 5.0 | 0.00 | 0.00 | 0.00 | 66 | 1020.1 |
| 20260904052708 | 63 | 230 | 2.0 | 5.0 | 0.00 | 0.00 | 0.00 | 66 | 1020.1 |
| 20260904052217 | 63 | 254 | 3.0 | 4.0 | 0.00 | 0.00 | 0.00 | 67 | 1020.1 |
| 20260904051717 | 63 | 258 | 2.0 | 4.0 | 0.00 | 0.00 | 0.00 | 68 | 1020.1 |
| 20260904051236 | 63 | 247 | 2.0 | 3.0 | 0.00 | 0.00 | 0.00 | 68 | 1020.1 |
| 20260904050714 | 62 | 251 | 1.0 | 0.0 | 0.00 | 0.00 | 0.00 | 69 | 1020.0 |
| 20260904045718 | 62 | 0 | 0.0 | 0.0 | 0.00 | 0.00 | 0.00 | 70 | 1020.1 |
| 20260904045213 | 62 | 0 | 0.0 | 0.0 | 0.00 | 0.00 | 0.00 | 70 | 1020.1 |
| 20260904044209 | 62 | 0 | 0.0 | 0.0 | 0.00 | 0.00 | 0.00 | 68 | 1020.2 |
| 20260904043716 | 63 | 0 | 0.0 | 0.0 | 0.00 | 0.00 | 0.00 | 68 | 1020.2 |
| 20260904042208 | 64 | 0 | 0.0 | 2.0 | 0.00 | 0.00 | 0.00 | 66 | 1020.3 |
| 20260904041709 | 64 | 205 | 0.0 | 3.0 | 0.00 | 0.00 | 0.00 | 66 | 1020.3 |
| 20260904041232 | 64 | 230 | 0.0 | 3.0 | 0.00 | 0.00 | 0.00 | 66 | 1020.2 |
| 20260904040219 | 64 | 239 | 1.0 | 3.0 | 0.00 | 0.00 | 0.00 | 65 | 1020.2 |
| 20260904035711 | 64 | 257 | 2.0 | 3.0 | 0.00 | 0.00 | 0.00 | 65 | 1020.2 |
| 20260904035208 | 64 | 250 | 1.0 | 3.0 | 0.00 | 0.00 | 0.00 | 65 | 1020.1 |
| 20260904034710 | 64 | 239 | 1.0 | 3.0 | 0.00 | 0.00 | 0.00 | 65 | 1020.2 |
| 20260904034219 | 64 | 253 | 0.0 | 3.0 | 0.00 | 0.00 | 0.00 | 65 | 1020.3 |
| 20260904033716 | 64 | 244 | 1.0 | 4.0 | 0.00 | 0.00 | 0.00 | 65 | 1020.3 |
| 20260904033216 | 65 | 248 | 1.0 | 4.0 | 0.00 | 0.00 | 0.00 | 65 | 1020.3 |
| 20260904032711 | 65 | 0 | 0.0 | 4.0 | 0.00 | 0.00 | 0.00 | 64 | 1020.3 |
| 20260904032213 | 65 | 257 | 1.0 | 4.0 | 0.00 | 0.00 | 0.00 | 64 | 1020.4 |
| 20260904031716 | 65 | 225 | 2.0 | 4.0 | 0.00 | 0.00 | 0.00 | 64 | 1020.4 |
| 20260904031215 | 65 | 253 | 2.0 | 4.0 | 0.00 | 0.00 | 0.00 | 64 | 1020.5 |
| 20260904030712 | 65 | 236 | 2.0 | 4.0 | 0.00 | 0.00 | 0.00 | 64 | 1020.5 |
| 20260904030216 | 65 | 241 | 2.0 | 2.0 | 0.00 | 0.00 | 0.00 | 64 | 1020.4 |
| 20260904025208 | 65 | 0 | 0.0 | 2.0 | 0.00 | 0.00 | 0.00 | 64 | 1020.6 |
| 20260904024707 | 65 | 250 | 0.0 | 2.0 | 0.00 | 0.00 | 0.00 | 64 | 1020.6 |
| 20260904024229 | 65 | 236 | 0.0 | 0.0 | 0.00 | 0.00 | 0.00 | 64 | 1020.7 |
| 20260904023708 | 65 | 0 | 0.0 | 2.0 | 0.00 | 0.00 | 0.00 | 64 | 1020.7 |
| 20260904023206 | 65 | 0 | 0.0 | 4.0 | 0.00 | 0.00 | 0.00 | 64 | 1020.7 |
| 20260904022710 | 65 | 0 | 0.0 | 4.0 | 0.00 | 0.00 | 0.00 | 63 | 1020.7 |
| 20260904022210 | 66 | 232 | 0.0 | 4.0 | 0.00 | 0.00 | 0.00 | 63 | 1020.8 |
| 20260904021710 | 66 | 227 | 2.0 | 4.0 | 0.00 | 0.00 | 0.00 | 63 | 1020.8 |
| 20260904021207 | 65 | 220 | 2.0 | 4.0 | 0.00 | 0.00 | 0.00 | 63 | 1020.8 |
| 20260904020216 | 65 | 0 | 0.0 | 0.0 | 0.00 | 0.00 | 0.00 | 63 | 1021.0 |
| 20260904015709 | 65 | 0 | 0.0 | 0.0 | 0.00 | 0.00 | 0.00 | 63 | 1020.9 |
| 20260904015216 | 66 | 0 | 0.0 | 2.0 | 0.00 | 0.00 | 0.00 | 63 | 1020.9 |
| 20260904014718 | 66 | 0 | 0.0 | 2.0 | 0.00 | 0.00 | 0.00 | 62 | 1020.9 |
| 20260904013710 | 66 | 203 | 0.0 | 4.0 | 0.00 | 0.00 | 0.00 | 62 | 1021.0 |
| 20260904013215 | 66 | 0 | 0.0 | 4.0 | 0.00 | 0.00 | 0.00 | 62 | 1021.1 |
| 20260904012711 | 66 | 212 | 1.0 | 1.0 | 0.00 | 0.00 | 0.00 | 61 | 1021.2 |
| 20260904011219 | 67 | 208 | 0.0 | 2.0 | 0.00 | 0.00 | 0.00 | 60 | 1021.2 |
| 20260904010718 | 67 | 0 | 0.0 | 3.0 | 0.00 | 0.00 | 0.00 | 60 | 1021.4 |
| 20260904010210 | 67 | 0 | 0.0 | 3.0 | 0.00 | 0.00 | 0.00 | 59 | 1021.5 |
| 20260904005716 | 67 | 234 | 0.0 | 3.0 | 0.00 | 0.00 | 0.00 | 59 | 1021.4 |
| 20260904005207 | 67 | 246 | 2.0 | 3.0 | 0.00 | 0.00 | 0.00 | 59 | 1021.5 |
| 20260904004715 | 67 | 233 | 1.0 | 2.0 | 0.00 | 0.00 | 0.00 | 59 | 1021.5 |
| 20260904004213 | 67 | 253 | 0.0 | 2.0 | 0.00 | 0.00 | 0.00 | 59 | 1021.5 |
| 20260904003212 | 68 | 255 | 0.0 | 4.0 | 0.00 | 0.00 | 0.00 | 59 | 1021.7 |
| 20260904002715 | 68 | 236 | 0.0 | 4.0 | 0.00 | 0.00 | 0.00 | 59 | 1021.7 |
| 20260904002210 | 68 | 248 | 1.0 | 4.0 | 0.00 | 0.00 | 0.00 | 59 | 1021.8 |
| 20260904001718 | 68 | 240 | 2.0 | 4.0 | 0.00 | 0.00 | 0.00 | 58 | 1021.9 |
| 20260904001208 | 68 | 253 | 1.0 | 4.0 | 0.00 | 0.00 | 0.00 | 58 | 1021.9 |
| 20260904000716 | 68 | 234 | 1.0 | 2.0 | 0.00 | 0.00 | 0.00 | 58 | 1021.9 |
| 20260904000218 | 68 | 0 | 0.0 | 3.0 | 0.00 | 0.00 | 0.00 | 58 | 1022.0 |
| 20260903235719 | 68 | 0 | 0.0 | 3.0 | 0.00 | 0.00 | 0.00 | 58 | 1021.9 |
| 20260903235208 | 68 | 241 | 0.0 | 3.0 | 0.00 | 0.00 | 0.00 | 58 | 1021.9 |
| 20260903234713 | 69 | 243 | 1.0 | 2.0 | 0.00 | 0.00 | 0.00 | 57 | 1022.0 |
| 20260903233713 | 69 | 0 | 0.0 | 3.0 | 0.00 | 0.00 | 0.00 | 57 | 1022.0 |
| 20260903233209 | 69 | 0 | 0.0 | 3.0 | 0.00 | 0.00 | 0.00 | 57 | 1022.0 |
| 20260903232710 | 69 | 0 | 0.0 | 3.0 | 0.00 | 0.00 | 0.00 | 57 | 1022.0 |
| 20260903231717 | 69 | 233 | 0.0 | 4.0 | 0.00 | 0.00 | 0.00 | 58 | 1022.2 |
| 20260903231213 | 69 | 227 | 0.0 | 4.0 | 0.00 | 0.00 | 0.00 | 58 | 1022.1 |
| 20260903230708 | 69 | 217 | 0.0 | 2.0 | 0.00 | 0.00 | 0.00 | 57 | 1022.1 |
| 20260903230210 | 69 | 225 | 0.0 | 5.0 | 0.00 | 0.00 | 0.00 | 57 | 1022.1 |
| 20260903225707 | 69 | 239 | 1.0 | 5.0 | 0.00 | 0.00 | 0.00 | 56 | 1022.1 |
| 20260903225208 | 70 | 241 | 0.0 | 5.0 | 0.00 | 0.00 | 0.00 | 56 | 1022.2 |
| 20260903224712 | 70 | 219 | 1.0 | 0.0 | 0.00 | 0.00 | 0.00 | 56 | 1022.2 |
| 20260903224218 | 69 | 0 | 0.0 | 0.0 | 0.00 | 0.00 | 0.00 | 56 | 1022.2 |
| 20260903223717 | 69 | 0 | 0.0 | 0.0 | 0.00 | 0.00 | 0.00 | 57 | 1022.2 |
| 20260903223219 | 69 | 0 | 0.0 | 0.0 | 0.00 | 0.00 | 0.00 | 57 | 1022.2 |
| 20260903222709 | 69 | 0 | 0.0 | 0.0 | 0.00 | 0.00 | 0.00 | 57 | 1022.3 |
| 20260903222213 | 70 | 0 | 0.0 | 0.0 | 0.00 | 0.00 | 0.00 | 56 | 1022.3 |
| 20260903221710 | 70 | 0 | 0.0 | 0.0 | 0.00 | 0.00 | 0.00 | 56 | 1022.3 |
| 20260903221219 | 70 | 0 | 0.0 | 0.0 | 0.00 | 0.00 | 0.00 | 56 | 1022.3 |
| 20260903220714 | 71 | 0 | 0.0 | 0.0 | 0.00 | 0.00 | 0.00 | 55 | 1022.4 |
| 20260903220205 | 71 | 0 | 0.0 | 0.0 | 0.00 | 0.00 | 0.00 | 54 | 1022.4 |
| 20260903215212 | 71 | 0 | 0.0 | 0.0 | 0.00 | 0.00 | 0.00 | 54 | 1022.5 |
| 20260903214714 | 71 | 0 | 0.0 | 0.0 | 0.00 | 0.00 | 0.00 | 55 | 1022.5 |
| 20260903214214 | 71 | 0 | 0.0 | 0.0 | 0.00 | 0.00 | 0.00 | 55 | 1022.4 |
| 20260903213709 | 71 | 0 | 0.0 | 0.0 | 0.00 | 0.00 | 0.00 | 55 | 1022.5 |
| 20260903213207 | 71 | 0 | 0.0 | 0.0 | 0.00 | 0.00 | 0.00 | 55 | 1022.4 |
| 20260903212708 | 71 | 0 | 0.0 | 0.0 | 0.00 | 0.00 | 0.00 | 55 | 1022.4 |
| 20260903212215 | 71 | 0 | 0.0 | 0.0 | 0.00 | 0.00 | 0.00 | 55 | 1022.5 |
| 20260903211709 | 71 | 0 | 0.0 | 0.0 | 0.00 | 0.00 | 0.00 | 55 | 1022.4 |
| 20260903211211 | 71 | 0 | 0.0 | 0.0 | 0.00 | 0.00 | 0.00 | 55 | 1022.5 |
| 20260903210709 | 71 | 0 | 0.0 | 0.0 | 0.00 | 0.00 | 0.00 | 55 | 1022.5 |
| 20260903205711 | 71 | 0 | 0.0 | 0.0 | 0.00 | 0.00 | 0.00 | 55 | 1022.4 |
| 20260903205215 | 71 | 0 | 0.0 | 0.0 | 0.00 | 0.00 | 0.00 | 54 | 1022.5 |
| 20260903204711 | 72 | 0 | 0.0 | 0.0 | 0.00 | 0.00 | 0.00 | 53 | 1022.5 |
| 20260903204218 | 72 | 0 | 0.0 | 0.0 | 0.00 | 0.00 | 0.00 | 53 | 1022.5 |
| 20260903203206 | 73 | 0 | 0.0 | 0.0 | 0.00 | 0.00 | 0.00 | 52 | 1022.4 |
| 20260903202716 | 74 | 0 | 0.0 | 0.0 | 0.00 | 0.00 | 0.00 | 51 | 1022.3 |
| 20260903202217 | 74 | 0 | 0.0 | 0.0 | 0.00 | 0.00 | 0.00 | 50 | 1022.4 |
| 20260903201714 | 75 | 0 | 0.0 | 0.0 | 0.00 | 0.00 | 0.00 | 49 | 1022.3 |
| 20260903201209 | 75 | 0 | 0.0 | 0.0 | 0.00 | 0.00 | 0.00 | 48 | 1022.3 |
| 20260903200219 | 76 | 0 | 0.0 | 0.0 | 0.00 | 0.00 | 0.00 | 46 | 1022.1 |
| 20260903195712 | 77 | 0 | 0.0 | 0.0 | 0.00 | 0.00 | 0.00 | 46 | 1022.1 |
| 20260903195211 | 77 | 0 | 0.0 | 1.0 | 0.00 | 0.00 | 0.00 | 45 | 1022.1 |
| 20260903194708 | 78 | 0 | 0.0 | 1.0 | 0.00 | 0.00 | 0.00 | 45 | 1022.2 |
| 20260903194207 | 78 | 0 | 0.0 | 2.0 | 0.00 | 0.00 | 0.00 | 44 | 1022.1 |
| 20260903193217 | 80 | 0 | 0.0 | 2.0 | 0.00 | 0.00 | 0.00 | 42 | 1021.9 |
| 20260903192708 | 82 | 303 | 0.0 | 0.0 | 0.00 | 0.00 | 0.00 | 40 | 1021.7 |
| 20260903191712 | 83 | 0 | 0.0 | 3.0 | 0.00 | 0.00 | 0.00 | 37 | 1021.7 |
| 20260903191209 | 83 | 0 | 0.0 | 3.0 | 0.00 | 0.00 | 0.00 | 36 | 1021.6 |
| 20260903190708 | 83 | 0 | 0.0 | 3.0 | 0.00 | 0.00 | 0.00 | 36 | 1021.5 |
| 20260903190211 | 83 | 284 | 1.0 | 3.0 | 0.00 | 0.00 | 0.00 | 36 | 1021.6 |
| 20260903185706 | 84 | 250 | 0.0 | 5.0 | 0.00 | 0.00 | 0.00 | 36 | 1021.5 |
| 20260903185209 | 84 | 251 | 0.0 | 5.0 | 0.00 | 0.00 | 0.00 | 36 | 1021.6 |
| 20260903184208 | 84 | 302 | 1.0 | 8.0 | 0.00 | 0.00 | 0.00 | 35 | 1021.6 |
| 20260903183718 | 85 | 285 | 1.0 | 8.0 | 0.00 | 0.00 | 0.00 | 35 | 1021.5 |
| 20260903183211 | 85 | 281 | 2.0 | 8.0 | 0.00 | 0.00 | 0.00 | 35 | 1021.5 |
| 20260903182719 | 85 | 255 | 2.0 | 8.0 | 0.00 | 0.00 | 0.00 | 35 | 1021.5 |
| 20260903182218 | 85 | 254 | 2.0 | 6.0 | 0.00 | 0.00 | 0.00 | 35 | 1021.5 |
| 20260903181704 | 86 | 262 | 1.0 | 6.0 | 0.00 | 0.00 | 0.00 | 34 | 1021.5 |
| 20260903181219 | 86 | 275 | 0.0 | 6.0 | 0.00 | 0.00 | 0.00 | 34 | 1021.4 |
| 20260903180706 | 86 | 286 | 1.0 | 9.0 | 0.00 | 0.00 | 0.00 | 34 | 1021.4 |
| 20260903180215 | 87 | 313 | 0.0 | 9.0 | 0.00 | 0.00 | 0.00 | 34 | 1021.5 |
| 20260903175715 | 87 | 0 | 0.0 | 9.0 | 0.00 | 0.00 | 0.00 | 33 | 1021.6 |
| 20260903174712 | 88 | 268 | 1.0 | 11.0 | 0.00 | 0.00 | 0.00 | 32 | 1021.6 |
| 20260903174207 | 88 | 279 | 2.0 | 11.0 | 0.00 | 0.00 | 0.00 | 32 | 1021.6 |
| 20260903173718 | 89 | 289 | 4.0 | 9.0 | 0.00 | 0.00 | 0.00 | 31 | 1021.6 |
| 20260903173207 | 89 | 271 | 1.0 | 9.0 | 0.00 | 0.00 | 0.00 | 31 | 1021.5 |
| 20260903172707 | 89 | 268 | 2.0 | 9.0 | 0.00 | 0.00 | 0.00 | 31 | 1021.6 |
| 20260903172214 | 90 | 246 | 5.0 | 10.0 | 0.00 | 0.00 | 0.00 | 31 | 1021.6 |